EW9355 Weather Reports


time (UTC)temp
C
wind
direction
speed
KPH
gust
KPH
rain 1hr
cm
rain 24hr
cm
rain mn
cm
humidity
%
barometer
mb
20260502123008 10 138 0.0 0.0 0.00 0.00 0.00 91 1018.8
20260502121505 10 138 0.0 0.0 0.00 0.00 0.00 90 1018.3
20260502114503 10 138 0.0 0.0 0.00 0.03 0.00 90 1018.1
20260502113135 10 138 0.0 0.0 0.00 0.03 0.00 90 1017.6
20260502111558 10 138 0.0 0.0 0.00 0.03 0.00 90 1017.5
20260502110058 10 138 0.0 0.0 0.00 0.03 0.00 90 1017.3
20260502104556 10 138 0.0 0.0 0.00 0.03 0.00 89 1017.4
20260502103054 10 138 0.0 0.0 0.00 0.03 0.00 89 1017.2
20260502101553 10 138 0.0 0.0 0.00 0.03 0.00 89 1017.1
20260502070040 11 138 0.0 0.0 0.00 0.03 0.00 86 1016.8
20260502064545 12 138 0.0 0.0 0.00 0.03 0.00 86 1016.9
20260502063035 12 138 0.0 0.0 0.00 0.03 0.00 85 1016.9
20260502061531 12 138 0.0 0.0 0.00 0.03 0.00 85 1016.9
20260502060032 12 138 0.0 0.0 0.00 0.03 0.00 85 1016.9
20260502054534 12 138 0.0 0.0 0.00 0.03 0.00 84 1016.8
20260502053027 12 138 0.0 0.0 0.00 0.03 0.00 84 1017.0
20260502051529 13 138 0.0 0.0 0.00 0.03 0.00 83 1017.0
20260502050023 13 138 0.0 0.0 0.00 0.03 0.00 82 1016.9
20260502044521 13 138 0.0 0.0 0.00 0.03 0.03 81 1016.9
20260502043024 13 138 0.0 0.0 0.00 0.03 0.03 80 1016.9
20260502041630 14 138 0.0 0.0 0.00 0.03 0.03 79 1016.8
20260502040016 14 138 0.0 0.0 0.00 0.03 0.03 78 1016.7
20260502034516 15 138 0.0 0.0 0.00 0.03 0.03 77 1016.7
20260502033014 15 138 0.0 0.0 0.00 0.03 0.03 76 1016.8
20260502031512 15 138 0.0 0.0 0.00 0.03 0.03 75 1016.4
20260502030011 15 138 0.0 0.0 0.00 0.03 0.03 74 1016.2
20260502024514 15 138 0.0 0.0 0.00 0.03 0.03 73 1016.3
20260502023010 15 138 0.0 0.0 0.00 0.03 0.03 72 1016.1
20260502021506 16 138 0.0 0.0 0.00 0.03 0.03 71 1015.8
20260502020005 16 138 0.0 0.0 0.00 0.03 0.03 71 1015.6
20260502014506 16 138 0.0 0.0 0.00 0.03 0.03 70 1015.4
20260502013008 16 138 0.0 0.0 0.00 0.03 0.03 70 1015.0
20260502011504 16 138 0.0 0.0 0.00 0.03 0.03 68 1014.7
20260502010008 16 138 0.0 0.0 0.00 0.03 0.03 67 1014.4
20260502004506 16 138 0.0 0.0 0.00 0.03 0.03 66 1014.4
20260502003002 16 138 0.0 0.0 0.00 0.03 0.03 66 1014.2
20260502001605 17 138 0.0 0.0 0.00 0.03 0.03 65 1014.3
20260502000114 17 139 0.0 0.0 0.00 0.03 0.03 63 1014.1
20260501234603 17 139 0.0 0.0 0.00 0.03 0.03 62 1013.7
20260501233104 17 133 0.0 0.0 0.00 0.03 0.03 61 1013.4
20260501231600 17 75 0.0 0.0 0.00 0.03 0.03 60 1013.4
20260501230104 17 84 0.0 0.0 0.00 0.03 0.03 59 1013.1
20260501224602 17 103 0.0 0.0 0.00 0.03 0.03 59 1013.1
20260501223058 17 85 0.0 0.0 0.00 0.03 0.03 59 1013.1
20260501221600 17 93 0.0 4.8 0.00 0.03 0.03 58 1013.2
20260501220105 17 86 0.0 9.7 0.00 0.03 0.03 58 1013.0
20260501214557 17 52 0.0 9.7 0.00 0.03 0.03 58 1013.1
20260501213105 17 97 0.0 11.3 0.00 0.03 0.03 59 1013.1
20260501211600 17 103 0.0 12.9 0.00 0.03 0.03 58 1013.1
20260501210055 17 103 0.0 3.2 0.00 0.03 0.03 58 1013.0
20260501204555 17 94 0.0 4.8 0.00 0.03 0.03 57 1013.7
20260501203058 17 92 0.0 9.7 0.00 0.03 0.03 56 1013.7
20260501201558 17 76 0.0 9.7 0.00 0.03 0.03 56 1014.0
20260501200158 17 92 0.0 16.1 0.00 0.03 0.03 55 1013.9
20260501194614 17 113 0.0 11.3 0.00 0.03 0.03 54 1013.5
20260501193052 17 161 0.0 8.0 0.00 0.03 0.03 52 1013.6
20260501191556 17 39 0.0 3.2 0.00 0.03 0.03 57 1013.6
20260501190054 17 107 0.0 4.8 0.00 0.03 0.03 55 1013.5
20260501184551 18 121 0.0 11.3 0.00 0.03 0.03 57 1013.5
20260501183050 18 79 0.0 12.9 0.00 0.03 0.03 55 1013.5
20260501181614 18 28 1.6 14.5 0.00 0.03 0.03 54 1014.0
20260501180046 18 68 1.6 12.9 0.00 0.03 0.03 56 1014.1
20260501174550 18 291 1.6 17.7 0.00 0.08 0.03 59 1014.4
20260501173102 17 84 3.2 9.7 0.00 0.08 0.03 58 1014.2
20260501171542 17 187 0.0 12.9 0.00 0.08 0.03 58 1015.0
20260501170040 17 91 3.2 14.5 0.00 0.08 0.03 59 1015.0
20260501164545 16 114 0.0 8.0 0.00 0.10 0.03 64 1014.9
20260501163035 16 151 0.0 11.3 0.00 0.10 0.03 64 1015.0
20260501161530 16 59 0.0 9.7 0.00 0.10 0.03 64 1015.3
20260501160032 15 63 0.0 6.4 0.00 0.10 0.03 65 1015.2
20260501154529 14 90 0.0 6.4 0.00 0.10 0.03 67 1015.2
20260501153054 14 115 0.0 6.4 0.00 0.10 0.03 67 1015.6
20260501151525 14 86 0.0 4.8 0.00 0.10 0.03 67 1014.8
20260501150026 14 76 0.0 3.2 0.00 0.10 0.03 68 1014.9
20260501144530 14 140 0.0 1.6 0.00 0.10 0.03 69 1015.3
20260501143024 14 85 0.0 0.0 0.00 0.10 0.03 72 1015.2
20260501141530 14 109 0.0 4.8 0.00 0.10 0.03 78 1014.6
20260501140018 14 113 0.0 0.0 0.00 0.10 0.03 80 1014.6
20260501134530 14 60 0.0 3.2 0.00 0.10 0.03 83 1014.5